TimeEDT,TemperatureF,Dew PointF,Humidity,Sea Level PressureIn,VisibilityMPH,Wind Direction,Wind SpeedMPH,Gust SpeedMPH,PrecipitationIn,Events,Conditions,WindDirDegrees,DateUTC
12:54 AM,59.0,57.0,93,30.06,7.0,Calm,Calm,-,N/A,,Overcast,0,2012-10-03 04:54:00
1:54 AM,59.0,57.0,93,30.07,5.0,Calm,Calm,-,N/A,,Overcast,0,2012-10-03 05:54:00
2:54 AM,59.0,57.0,93,30.06,8.0,Calm,Calm,-,N/A,,Overcast,0,2012-10-03 06:54:00
3:15 AM,59.0,57.2,94,30.06,8.0,Calm,Calm,-,N/A,,Overcast,0,2012-10-03 07:15:00
3:54 AM,59.0,57.0,93,30.06,5.0,Calm,Calm,-,N/A,,Overcast,0,2012-10-03 07:54:00
4:06 AM,60.8,57.2,88,30.06,7.0,Calm,Calm,-,N/A,,Overcast,0,2012-10-03 08:06:00
4:51 AM,59.0,57.2,94,30.06,6.0,Calm,Calm,-,N/A,,Overcast,0,2012-10-03 08:51:00
4:54 AM,59.0,57.0,93,30.06,6.0,Calm,Calm,-,N/A,,Overcast,0,2012-10-03 08:54:00
5:12 AM,59.0,57.2,94,30.07,5.0,Calm,Calm,-,N/A,,Overcast,0,2012-10-03 09:12:00
5:37 AM,59.0,57.2,94,30.07,4.0,Calm,Calm,-,N/A,,Overcast,0,2012-10-03 09:37:00
5:54 AM,59.0,57.0,93,30.08,2.5,Calm,Calm,-,N/A,,Overcast,0,2012-10-03 09:54:00
6:42 AM,59.0,57.2,94,30.09,3.0,Calm,Calm,-,0.01,,Overcast,0,2012-10-03 10:42:00
6:54 AM,59.0,57.0,93,30.09,5.0,Calm,Calm,-,0.01,,Overcast,0,2012-10-03 10:54:00
7:18 AM,59.0,57.2,94,30.09,1.8,Calm,Calm,-,0.00,Rain,Light Rain,0,2012-10-03 11:18:00
7:28 AM,59.0,57.2,94,30.09,1.8,Calm,Calm,-,0.00,Rain,Light Rain,0,2012-10-03 11:28:00
7:35 AM,59.0,57.2,94,30.09,2.0,Calm,Calm,-,0.00,,Overcast,0,2012-10-03 11:35:00
7:54 AM,59.0,57.0,93,30.10,1.5,Calm,Calm,-,0.00,Rain,Light Rain,0,2012-10-03 11:54:00
8:12 AM,59.0,57.2,94,30.10,1.2,Calm,Calm,-,0.00,,Overcast,0,2012-10-03 12:12:00
8:54 AM,59.0,57.9,96,30.11,1.0,Calm,Calm,-,0.01,Rain,Light Rain,0,2012-10-03 12:54:00
9:27 AM,60.8,57.2,88,30.12,3.0,Calm,Calm,-,0.01,,Overcast,0,2012-10-03 13:27:00
9:35 AM,60.8,57.2,88,30.12,4.0,Calm,Calm,-,0.01,,Overcast,0,2012-10-03 13:35:00
9:54 AM,61.0,57.9,90,30.12,4.0,Calm,Calm,-,0.01,Rain,Light Rain,0,2012-10-03 13:54:00
10:20 AM,60.8,57.2,88,30.12,3.0,Calm,Calm,-,0.01,,Overcast,0,2012-10-03 14:20:00
10:31 AM,60.8,57.2,88,30.11,1.8,Calm,Calm,-,0.01,,Overcast,0,2012-10-03 14:31:00
10:54 AM,62.1,57.9,86,30.13,1.8,Calm,Calm,-,0.01,,Overcast,0,2012-10-03 14:54:00
11:02 AM,62.6,59.0,88,30.12,3.0,Calm,Calm,-,N/A,,Overcast,0,2012-10-03 15:02:00
11:54 AM,63.0,59.0,87,30.12,2.0,Calm,Calm,-,0.01,,Overcast,0,2012-10-03 15:54:00
12:06 PM,62.6,59.0,88,30.12,3.0,Calm,Calm,-,N/A,,Overcast,0,2012-10-03 16:06:00
12:13 PM,62.6,59.0,88,30.12,2.0,Calm,Calm,-,N/A,,Overcast,0,2012-10-03 16:13:00
12:39 PM,62.6,60.8,94,30.12,1.8,Calm,Calm,-,0.00,Rain,Light Rain,0,2012-10-03 16:39:00
12:46 PM,62.6,59.0,88,30.11,3.0,Calm,Calm,-,0.00,Rain,Light Rain,0,2012-10-03 16:46:00
12:54 PM,63.0,60.1,90,30.11,3.0,Calm,Calm,-,0.00,,Overcast,0,2012-10-03 16:54:00
1:54 PM,64.9,60.1,84,30.10,10.0,Calm,Calm,-,N/A,,Overcast,0,2012-10-03 17:54:00
2:41 PM,64.4,60.8,88,30.10,9.0,Calm,Calm,-,N/A,,Overcast,0,2012-10-03 18:41:00
2:54 PM,64.9,61.0,87,30.10,10.0,Calm,Calm,-,N/A,,Overcast,0,2012-10-03 18:54:00
3:54 PM,64.9,61.0,87,30.10,10.0,Calm,Calm,-,N/A,,Overcast,0,2012-10-03 19:54:00
4:54 PM,64.9,61.0,87,30.12,10.0,Calm,Calm,-,N/A,,Overcast,0,2012-10-03 20:54:00
5:05 PM,64.4,62.6,94,30.11,9.0,Calm,Calm,-,N/A,,Overcast,0,2012-10-03 21:05:00
5:54 PM,64.0,62.1,93,30.12,7.0,Calm,Calm,-,N/A,,Overcast,0,2012-10-03 21:54:00
6:16 PM,64.4,62.6,94,30.12,9.0,Calm,Calm,-,N/A,,Overcast,0,2012-10-03 22:16:00
6:43 PM,64.4,60.8,88,30.13,8.0,Calm,Calm,-,N/A,,Overcast,0,2012-10-03 22:43:00
6:54 PM,64.0,61.0,90,30.13,10.0,Calm,Calm,-,N/A,,Overcast,0,2012-10-03 22:54:00
7:01 PM,64.4,60.8,88,30.12,10.0,Calm,Calm,-,N/A,,Overcast,0,2012-10-03 23:01:00
7:30 PM,64.4,60.8,88,30.13,10.0,Calm,Calm,-,N/A,,Overcast,0,2012-10-03 23:30:00
7:51 PM,64.4,60.8,88,30.14,10.0,Calm,Calm,-,N/A,,Overcast,0,2012-10-03 23:51:00
7:54 PM,64.0,61.0,90,30.14,10.0,Calm,Calm,-,N/A,,Overcast,0,2012-10-03 23:54:00
8:54 PM,64.0,61.0,90,30.15,10.0,Calm,Calm,-,N/A,,Overcast,0,2012-10-04 00:54:00
9:13 PM,62.6,60.8,94,30.15,6.0,Calm,Calm,-,N/A,,Overcast,0,2012-10-04 01:13:00
9:54 PM,63.0,61.0,93,30.16,10.0,Calm,Calm,-,N/A,,Overcast,0,2012-10-04 01:54:00
10:54 PM,63.0,60.1,90,30.16,7.0,Calm,Calm,-,N/A,,Overcast,0,2012-10-04 02:54:00
11:54 PM,63.0,60.1,90,30.17,7.0,Calm,Calm,-,N/A,,Overcast,0,2012-10-04 03:54:00